Temp
63 62 62 62 62 63 63 63 63 63 63 63 63 63 63 63 62 64 67 80 79 81 81 86 85 86 85 81 85 83 61 63 67 67 67 73 71 78 76 79 80 86 83 85 86
62 62 62 62 62 62 62 62 62 63 63 62 62 62 63 63 63 66 79 82 82 81 82 82 79 83 77 80 72 64 59 67 75 75 69 72 75 74 68 74 78 82 87 89 88
61 61 61 61 61 62 62 62 62 62 62 62 62 62 62 62 63 75 82 82 81 81 87 87 87 84 78 83 70 65 61 76 78 78 79 76 77 74 72 71 79 78 82 86 83
61 61 61 61 61 61 61 61 61 61 61 61 61 62 63 63 62 83 81 82 81 85 85 83 83 77 75 77 73 67 72 77 79 83 81 77 77 69 69 74 85 85 86 86 85
61 61 61 60 61 61 61 61 61 60 60 61 61 62 61 60 68 83 80 81 82 82 82 80 77 78 74 79 81 69 75 82 86 84 82 82 75 71 72 74 88 88 87 84 83
61 61 60 60 60 61 61 60 60 60 60 60 62 62 57 58 88 84 83 80 84 81 81 82 81 85 81 83 78 74 77 78 80 80 82 76 74 76 76 85 85 86 83 85 84
60 60 60 60 60 60 60 60 60 60 60 61 62 65 64 66 89 85 84 77 81 83 79 86 87 82 83 81 88 78 72 75 79 80 77 77 68 72 78 82 82 84 84 86 87
60 60 60 60 60 60 59 58 59 60 61 64 63 63 60 86 87 88 86 82 85 85 86 88 90 83 79 85 85 75 73 63 81 85 81 77 63 67 76 77 78 83 84 84 86
60 60 60 60 60 59 58 57 59 61 64 65 57 58 65 85 83 88 88 83 83 85 87 94 86 75 79 70 65 70 61 69 73 86 80 76 63 66 78 77 76 81 82 83 84
59 60 59 60 59 58 57 56 60 60 62 70 72 60 71 78 85 88 89 90 83 82 82 81 73 65 66 60 53 61 64 68 69 81 78 63 60 64 67 72 78 80 82 80 83
59 59 59 58 57 56 56 62 57 58 66 64 67 71 82 86 90 85 90 87 85 78 66 73 61 57 64 69 73 73 70 70 78 79 67 62 61 66 70 69 77 79 80 80 79
59 58 58 58 56 56 53 61 72 74 64 73 77 79 84 86 79 84 89 76 74 66 71 64 58 70 76 77 75 74 70 71 75 77 67 63 61 65 71 69 79 77 77 80 79
58 58 57 56 55 52 62 71 83 81 62 74 78 78 81 84 78 78 82 79 72 68 69 62 68 78 76 75 73 70 65 68 68 72 72 69 62 61 67 76 78 78 79 80 80
58 58 57 54 54 71 72 79 81 82 52 67 71 79 82 79 74 88 87 80 74 68 71 68 77 76 74 73 73 60 76 79 72 66 58 68 50 60 68 71 74 76 74 76 77
57 57 56 54 55 68 79 84 81 74 42 73 74 88 80 72 75 78 88 79 70 72 69 66 71 72 71 74 77 70 79 77 73 64 63 62 58 58 68 65 66 71 74 78 80
57 56 55 57 58 68 80 83 76 52 46 65 77 73 71 73 76 80 79 81 81 73 73 72 81 77 74 80 80 82 76 74 71 67 57 63 63 56 61 66 69 65 69 77 78
55 54 53 68 69 83 85 74 52 43 61 65 66 71 69 68 72 73 71 66 60 52 56 69 73 77 81 70 76 72 60 50 50 49 54 66 64 55 64 67 66 65 66 72 80
53 52 57 69 79 82 78 61 42 53 56 68 68 70 65 70 70 72 67 61 69 66 58 55 54 70 79 69 65 65 60 51 44 47 53 64 53 56 69 70 70 73 72 73 74
52 66 70 78 76 76 65 45 49 53 61 64 69 62 63 70 69 69 65 63 69 70 55 57 59 76 79 77 72 65 61 68 58 57 52 55 59 65 66 66 68 66 66 64 67
60 70 74 88 87 75 60 51 60 66 72 70 58 60 56 64 65 64 61 68 72 75 69 60 52 67 77 78 77 68 69 58 55 45 48 54 54 52 58 63 61 59 59 61 62
64 66 81 88 86 64 55 57 68 75 73 65 63 60 61 58 62 58 58 67 70 70 69 61 55 62 70 65 64 62 58 57 58 55 48 46 46 60 59 60 56 56 57 58 59
71 61 84 84 64 63 58 65 63 71 73 69 67 65 60 61 58 55 58 61 71 70 62 63 61 50 57 70 73 67 62 62 50 50 52 50 48 63 61 62 60 57 58 58 59
62 69 83 81 58 58 64 70 71 68 68 69 67 65 66 60 54 60 61 71 74 69 57 58 53 47 54 63 66 61 68 61 60 57 54 47 47 61 60 60 60 57 59 59 58
63 63 71 73 72 66 62 63 64 73 70 70 67 67 61 57 58 56 60 70 72 70 66 63 58 51 45 53 58 57 64 66 56 49 52 55 50 56 57 57 57 59 61 60 59
65 64 68 59 63 64 64 65 65 63 69 68 63 65 58 51 53 55 61 65 70 65 65 59 50 54 60 63 63 63 64 67 60 56 52 53 53 55 57 57 61 62 63 62 62
62 63 69 65 67 65 58 60 63 64 63 62 61 66 60 51 51 51 55 56 55 60 56 60 50 55 52 63 63 61 65 69 68 64 59 60 54 61 61 61 62 63 63 61 59
71 72 65 62 65 63 60 63 65 66 66 68 66 61 59 62 63 61 60 61 56 54 55 54 50 47 43 58 60 51 59 62 62 66 62 51 55 61 59 61 61 62 64 61 61
MSLP
1017.24 1017.00 1016.76 1016.54 1016.28 1016.02 1015.73 1015.42 1015.12 1014.82 1014.60 1014.35 1014.15 1013.92 1013.69 1013.38 1012.85 1012.45 1011.01 1008.53 1008.55 1008.58 1008.91 1008.70 1008.69 1008.48 1008.52 1008.29 1008.21 1008.77 1009.61 1008.94 1008.65 1009.09 1009.87 1010.51 1010.77 1011.12 1011.13 1010.27 1010.14 1009.84 1010.39 1010.87 1012.01
1017.21 1016.97 1016.72 1016.44 1016.12 1015.82 1015.58 1015.34 1015.04 1014.71 1014.45 1014.26 1014.02 1013.84 1013.57 1013.28 1012.57 1010.72 1008.03 1007.74 1007.76 1008.11 1008.61 1008.33 1008.23 1008.06 1008.18 1007.63 1009.95 1010.57 1010.19 1008.43 1007.41 1007.85 1009.09 1009.95 1010.23 1011.07 1011.45 1010.56 1010.10 1010.20 1010.57 1010.90 1012.33
1017.19 1016.87 1016.62 1016.39 1016.08 1015.73 1015.44 1015.18 1014.89 1014.64 1014.34 1014.13 1013.92 1013.70 1013.48 1013.25 1011.86 1007.76 1005.98 1007.17 1007.48 1007.77 1008.01 1007.62 1007.32 1007.35 1007.33 1007.27 1009.77 1010.59 1009.90 1008.01 1007.45 1007.56 1008.45 1009.17 1010.14 1011.30 1011.52 1010.89 1009.73 1009.89 1010.36 1010.86 1012.26
1017.11 1016.81 1016.52 1016.15 1015.87 1015.61 1015.26 1015.02 1014.75 1014.46 1014.26 1014.00 1013.81 1013.51 1013.28 1012.95 1010.05 1006.51 1005.44 1006.64 1007.30 1007.62 1007.88 1007.50 1007.06 1006.91 1006.93 1006.91 1008.21 1008.86 1008.48 1007.72 1007.07 1007.10 1007.75 1008.46 1010.00 1011.09 1011.05 1011.08 1009.82 1009.78 1010.39 1010.86 1011.97
1016.96 1016.61 1016.35 1016.04 1015.65 1015.31 1015.09 1014.80 1014.59 1014.33 1014.04 1013.93 1013.71 1013.47 1012.94 1011.75 1008.27 1006.48 1006.52 1006.91 1007.41 1007.70 1007.55 1007.26 1006.79 1006.34 1006.23 1005.99 1006.68 1007.77 1007.28 1006.80 1006.24 1006.61 1007.38 1008.32 1009.38 1010.60 1011.31 1010.26 1009.94 1009.91 1010.46 1010.99 1011.41
1016.84 1016.57 1016.15 1015.90 1015.46 1015.05 1014.71 1014.55 1014.37 1014.13 1013.85 1013.70 1013.58 1013.50 1012.89 1010.05 1005.69 1006.05 1006.47 1007.06 1006.99 1007.40 1007.15 1006.75 1005.89 1005.38 1005.40 1005.53 1006.11 1007.38 1006.83 1006.12 1007.06 1006.51 1007.10 1008.15 1009.25 1009.61 1010.38 1009.91 1009.91 1010.30 1010.63 1010.96 1011.43
1016.38 1016.08 1015.88 1015.56 1015.16 1014.81 1014.40 1014.09 1014.03 1013.88 1013.61 1013.41 1013.39 1013.22 1011.57 1008.18 1005.65 1005.75 1006.15 1006.47 1006.45 1006.74 1006.72 1005.92 1005.35 1005.20 1004.98 1005.06 1004.66 1006.05 1006.53 1005.63 1006.19 1006.38 1006.93 1008.16 1009.90 1009.86 1009.97 1010.08 1010.17 1010.39 1010.66 1010.99 1011.35
1016.23 1015.82 1015.51 1015.11 1014.75 1014.39 1014.09 1013.75 1013.54 1013.38 1013.13 1012.86 1013.16 1012.75 1009.75 1005.70 1005.03 1005.78 1005.81 1006.25 1006.25 1006.35 1006.16 1005.29 1004.84 1005.02 1005.03 1004.74 1004.47 1005.65 1006.07 1005.94 1004.22 1004.92 1006.21 1007.02 1009.26 1010.98 1010.89 1010.43 1010.32 1010.52 1010.75 1011.06 1011.64
1015.95 1015.56 1015.11 1014.81 1014.40 1014.06 1013.63 1013.36 1013.03 1012.80 1012.53 1012.45 1012.86 1011.99 1007.94 1004.73 1004.92 1004.61 1005.04 1005.66 1005.95 1006.03 1005.93 1005.48 1004.97 1005.31 1005.18 1005.44 1005.31 1004.72 1005.24 1004.96 1004.75 1004.61 1005.77 1007.22 1010.17 1009.75 1011.36 1011.64 1010.92 1010.65 1010.83 1011.12 1011.60
1015.41 1015.00 1014.69 1014.44 1014.00 1013.68 1013.32 1012.81 1012.48 1012.46 1012.32 1012.13 1011.33 1010.89 1006.90 1004.54 1004.29 1004.32 1004.53 1004.89 1005.55 1005.77 1005.79 1005.45 1005.46 1005.96 1005.96 1006.07 1005.80 1005.07 1004.79 1004.54 1004.70 1005.26 1005.87 1008.63 1011.16 1012.09 1011.85 1011.54 1010.92 1010.78 1010.79 1011.19 1011.84
1015.01 1014.52 1014.34 1014.09 1013.96 1013.57 1013.15 1012.18 1012.54 1011.81 1010.80 1009.10 1008.02 1006.72 1004.40 1003.63 1003.69 1004.01 1004.00 1004.40 1005.05 1005.62 1005.81 1005.64 1006.27 1006.40 1006.22 1005.74 1005.15 1004.77 1004.61 1004.55 1004.24 1005.39 1007.50 1009.07 1011.61 1011.44 1010.64 1010.74 1010.67 1010.42 1010.65 1011.02 1011.90
1014.84 1014.37 1014.08 1013.95 1013.57 1013.61 1013.52 1011.95 1008.97 1007.60 1007.56 1007.03 1006.22 1005.33 1004.25 1003.60 1003.68 1003.57 1003.63 1004.33 1004.82 1005.40 1005.68 1006.09 1006.10 1005.99 1005.72 1005.29 1004.74 1004.33 1004.36 1004.50 1004.60 1005.99 1007.46 1009.93 1010.81 1010.97 1009.86 1010.17 1010.07 1010.21 1010.57 1010.93 1011.74
1014.65 1014.39 1013.91 1013.53 1013.34 1013.14 1011.77 1009.59 1007.52 1006.84 1006.96 1005.31 1004.69 1004.16 1002.92 1002.81 1003.35 1003.56 1003.76 1004.19 1004.79 1005.34 1005.65 1005.71 1005.05 1005.07 1004.90 1004.42 1004.17 1003.80 1003.87 1004.23 1004.72 1006.00 1006.94 1010.56 1011.32 1011.12 1010.88 1010.19 1010.01 1010.34 1010.71 1011.00 1011.69
1014.42 1014.08 1013.82 1013.39 1013.28 1010.94 1009.87 1007.65 1007.11 1006.42 1006.52 1004.25 1003.76 1003.06 1002.58 1002.71 1003.11 1003.34 1003.79 1004.21 1004.46 1005.01 1005.27 1005.29 1004.36 1004.39 1003.91 1003.66 1003.39 1003.32 1002.99 1003.31 1004.55 1005.86 1007.41 1008.63 1010.03 1010.33 1009.93 1009.91 1010.09 1010.38 1010.83 1011.41 1011.93
1013.90 1013.81 1013.77 1013.74 1012.90 1010.68 1007.85 1006.84 1006.61 1006.74 1005.92 1003.49 1002.68 1002.06 1002.64 1003.24 1003.00 1003.12 1003.64 1004.02 1004.25 1004.50 1004.88 1004.44 1003.72 1003.56 1003.21 1002.83 1002.58 1002.74 1002.45 1002.99 1004.63 1005.90 1006.65 1007.89 1008.93 1008.69 1009.46 1010.35 1010.90 1011.09 1011.31 1011.62 1011.90
1013.69 1013.39 1013.36 1013.03 1012.52 1009.30 1007.53 1007.02 1006.77 1007.46 1005.71 1003.99 1002.52 1002.34 1002.94 1003.16 1003.15 1003.14 1003.69 1004.18 1003.99 1004.46 1004.27 1003.87 1002.99 1002.66 1002.33 1002.19 1002.18 1002.22 1002.52 1003.07 1004.02 1005.37 1006.58 1006.41 1007.96 1008.67 1009.33 1009.37 1011.07 1012.54 1013.03 1012.14 1012.16
1013.39 1013.14 1013.27 1011.95 1009.80 1007.59 1007.13 1007.18 1007.73 1008.30 1007.94 1004.45 1003.40 1002.87 1003.07 1003.23 1003.23 1003.34 1003.98 1004.53 1004.68 1004.79 1004.40 1003.63 1002.93 1002.39 1001.99 1002.15 1002.12 1002.39 1003.39 1004.21 1004.78 1005.71 1006.51 1006.22 1007.17 1008.56 1008.95 1010.39 1011.30 1011.95 1012.08 1012.63 1012.65
1012.59 1012.54 1011.20 1010.19 1008.66 1008.01 1007.54 1008.25 1009.69 1009.42 1007.97 1005.76 1004.33 1003.24 1003.49 1003.22 1003.27 1003.48 1004.22 1004.93 1004.94 1004.94 1004.73 1004.10 1003.23 1002.32 1001.89 1002.06 1002.42 1002.81 1003.72 1004.46 1004.99 1005.86 1006.43 1006.32 1007.96 1008.88 1009.07 1009.84 1011.35 1011.97 1011.14 1012.20 1012.50
1011.72 1010.87 1010.02 1008.07 1008.12 1008.49 1008.92 1009.46 1009.55 1009.45 1007.77 1006.05 1004.30 1003.58 1003.51 1003.26 1003.25 1003.63 1004.32 1004.92 1004.95 1004.69 1005.09 1004.32 1003.27 1002.28 1001.82 1002.13 1002.52 1002.99 1003.43 1003.57 1005.05 1005.50 1006.66 1007.72 1009.27 1009.94 1010.79 1012.09 1012.74 1013.14 1013.24 1014.04 1014.15
1012.03 1010.33 1008.26 1006.25 1006.81 1007.71 1008.59 1008.73 1008.40 1008.03 1006.47 1005.69 1005.28 1004.62 1004.74 1004.13 1003.92 1004.10 1004.87 1005.49 1004.88 1004.74 1004.48 1004.62 1004.50 1003.13 1002.41 1002.21 1002.50 1002.93 1003.22 1003.94 1005.00 1006.54 1007.52 1009.05 1009.85 1011.01 1012.60 1013.16 1014.23 1015.05 1015.08 1015.59 1015.88
1011.72 1009.57 1005.92 1005.33 1006.17 1007.62 1008.47 1007.96 1007.11 1006.65 1006.29 1006.10 1005.77 1005.28 1005.71 1006.02 1005.98 1006.10 1006.35 1006.49 1006.37 1005.78 1005.61 1005.52 1005.37 1004.22 1002.82 1002.43 1002.81 1003.38 1003.65 1004.43 1005.34 1006.56 1008.01 1009.82 1012.10 1013.10 1013.44 1014.15 1015.07 1016.14 1016.70 1017.09 1017.28
1011.07 1008.95 1005.60 1005.29 1006.30 1007.38 1008.10 1007.20 1006.99 1006.43 1006.11 1006.18 1006.24 1006.48 1007.07 1007.43 1007.52 1007.70 1007.55 1007.39 1007.17 1006.90 1006.89 1006.91 1006.16 1005.51 1004.27 1003.07 1002.85 1003.34 1003.87 1004.61 1006.23 1007.21 1008.77 1010.58 1013.07 1013.37 1014.23 1014.96 1015.72 1016.73 1017.54 1018.30 1018.80
1011.55 1008.33 1005.31 1005.29 1006.27 1006.89 1006.98 1007.05 1007.14 1007.07 1006.72 1006.59 1006.57 1007.35 1007.51 1008.03 1008.56 1008.53 1008.23 1007.88 1007.56 1007.74 1008.22 1008.12 1007.45 1007.04 1005.74 1004.70 1003.90 1004.21 1004.35 1004.70 1005.44 1006.63 1008.52 1011.32 1013.68 1014.40 1015.18 1015.65 1016.45 1016.99 1017.78 1018.71 1019.30
1011.43 1008.19 1006.29 1005.87 1006.30 1006.88 1007.14 1007.17 1007.22 1007.37 1007.36 1007.52 1007.56 1007.60 1008.12 1008.76 1009.26 1009.05 1008.73 1008.23 1008.04 1008.34 1008.58 1008.50 1008.59 1008.68 1007.94 1007.28 1006.64 1006.15 1005.67 1005.11 1005.88 1007.22 1009.06 1010.58 1013.41 1014.67 1015.56 1016.30 1016.82 1017.23 1017.64 1018.58 1019.19
1011.21 1008.72 1007.69 1007.65 1007.54 1007.69 1007.72 1007.71 1007.65 1007.84 1007.90 1007.97 1008.04 1008.29 1009.09 1010.02 1009.92 1009.75 1009.51 1008.66 1008.41 1008.63 1008.64 1008.79 1009.29 1009.31 1008.84 1008.13 1007.52 1006.97 1006.33 1005.53 1006.01 1006.73 1008.54 1010.96 1012.40 1014.09 1015.45 1016.52 1016.98 1017.43 1017.90 1018.48 1018.81
1010.66 1009.46 1008.45 1008.14 1007.78 1007.74 1008.08 1008.33 1008.44 1008.73 1009.07 1008.78 1008.92 1009.06 1009.49 1010.44 1010.70 1011.09 1010.63 1010.04 1009.43 1009.30 1009.23 1009.21 1009.80 1009.68 1009.95 1009.06 1008.33 1007.72 1007.02 1005.69 1006.13 1006.91 1008.71 1010.55 1012.85 1014.05 1015.17 1016.24 1017.07 1017.54 1018.28 1018.81 1019.04
1010.98 1009.97 1009.43 1008.63 1008.02 1007.98 1008.65 1008.87 1009.09 1009.37 1009.75 1009.88 1009.99 1010.06 1010.36 1010.66 1010.84 1010.75 1010.76 1010.63 1010.23 1010.06 1010.17 1010.21 1010.64 1011.32 1011.05 1010.37 1009.56 1008.98 1008.10 1007.62 1007.65 1007.51 1008.50 1010.80 1012.57 1013.94 1015.16 1015.96 1016.95 1017.63 1018.34 1018.70 1019.23
Wind_Speed
13 13 14 14 14 13 13 13 13 14 13 14 14 14 13 13 15 5 8 8 9 12 4 7 9 12 13 12 9 2 4 2 5 13 10 11 7 10 4 6 9 11 17 16 22
13 14 14 14 14 14 14 14 13 14 13 13 14 14 13 12 7 12 14 16 11 14 5 10 12 14 9 12 6 8 4 3 4 11 12 14 7 12 3 4 6 20 19 17 30
15 14 14 14 15 15 14 14 14 14 14 14 13 14 13 11 6 8 11 17 12 11 10 15 16 15 11 10 7 7 6 7 14 17 16 15 9 9 8 7 20 22 24 18 27
16 16 15 14 14 15 15 14 14 14 15 14 13 13 12 4 1 2 5 20 12 8 10 14 14 8 8 10 12 9 13 14 16 18 17 12 15 10 6 2 13 23 20 15 22
16 16 16 15 15 14 15 15 15 15 15 16 13 11 7 5 11 6 10 10 7 5 13 14 14 9 11 7 6 3 4 2 13 16 15 13 16 17 10 10 18 21 18 11 8
16 17 16 16 15 16 16 15 16 15 16 14 11 8 4 6 5 13 11 8 9 10 12 14 10 10 9 15 12 6 7 9 14 14 16 14 12 8 6 16 19 20 15 11 10
14 14 15 16 17 17 17 16 15 17 14 12 9 7 5 15 10 12 11 6 9 10 12 15 17 7 7 12 7 22 8 17 6 21 12 19 7 8 10 8 20 19 14 12 13
15 15 16 16 17 18 17 15 16 15 13 11 6 6 9 11 14 10 10 9 10 11 16 12 10 8 5 9 12 7 7 4 8 18 16 9 7 8 7 10 16 19 14 12 13
17 17 16 16 17 17 14 15 17 13 10 7 5 5 8 3 9 9 10 12 11 10 15 17 7 4 8 5 6 6 6 9 5 14 19 7 9 8 9 13 19 18 15 11 12
16 16 15 16 14 14 16 18 11 11 4 8 8 3 8 13 8 10 10 13 12 10 13 8 2 0 5 2 6 6 8 7 12 8 14 18 14 10 12 5 20 18 16 11 13
17 16 16 12 11 10 10 1 1 2 7 11 10 9 5 12 8 11 12 12 13 9 7 7 5 8 11 11 13 10 8 13 6 8 14 18 3 20 13 4 20 17 15 14 12
18 18 16 13 7 6 3 4 11 6 6 19 19 18 20 8 10 10 8 6 7 8 8 5 8 12 16 15 16 15 12 5 7 13 13 10 12 13 9 9 19 15 12 16 13
17 17 16 12 10 3 6 9 12 9 5 12 15 13 11 14 12 9 9 10 8 9 10 8 12 18 17 15 15 13 8 6 9 9 18 2 6 9 10 13 13 11 8 9 16
16 16 16 13 4 4 8 11 13 6 3 7 11 10 5 1 6 11 11 9 6 11 11 12 19 17 15 12 11 8 10 12 18 13 10 18 6 6 11 16 16 15 12 9 8
15 13 11 4 8 6 10 5 5 4 4 14 10 8 6 6 5 10 12 10 9 10 7 10 15 13 13 14 10 10 9 2 9 5 4 17 1 8 17 13 15 11 12 13 12
15 11 12 4 5 12 14 15 3 2 5 14 6 7 10 8 13 10 13 9 10 10 10 13 10 11 8 9 12 10 9 8 9 7 5 10 16 3 16 18 15 6 10 12 14
14 8 5 7 6 10 9 4 3 5 17 8 4 10 8 8 13 12 11 8 6 2 6 10 14 10 10 6 7 4 4 3 1 2 3 13 1 1 13 14 15 15 24 14 17
18 9 10 8 9 11 6 5 7 11 12 14 16 9 9 11 14 16 11 7 10 10 5 6 6 8 8 6 8 7 6 5 5 4 7 6 7 5 9 16 18 7 13 11 9
24 3 5 6 14 6 5 6 6 6 9 9 18 3 11 11 8 10 9 10 9 13 5 2 7 6 8 4 5 8 10 10 3 6 2 6 8 10 9 9 14 15 14 14 10
4 4 7 16 8 2 3 7 7 10 10 12 11 3 7 2 5 9 3 9 4 10 7 4 6 8 10 8 10 9 3 6 2 2 3 7 7 9 11 14 13 12 12 12 12
3 3 3 3 9 6 3 4 4 5 7 4 11 11 8 6 14 12 6 10 17 12 11 6 1 8 5 7 11 1 3 1 2 1 6 5 3 7 13 14 14 10 9 9 11
4 4 6 1 2 4 6 3 4 7 3 4 4 9 10 7 7 4 3 2 8 10 7 7 2 3 5 8 3 4 6 8 5 6 5 4 2 7 10 12 14 11 10 8 9
4 6 3 3 2 3 3 4 5 9 12 10 5 5 7 6 3 11 2 5 4 9 4 6 6 4 9 7 5 4 6 6 1 1 6 9 4 11 10 11 11 11 11 9 9
3 4 3 4 5 9 5 5 3 6 3 8 8 5 3 4 6 4 5 2 2 5 4 1 4 2 5 6 5 8 17 9 3 0 3 6 11 13 14 12 9 10 11 9 9
3 1 2 4 5 4 5 7 4 5 3 3 3 5 6 6 7 4 11 3 3 3 4 2 1 4 7 5 8 9 16 12 8 4 6 16 14 14 14 12 12 11 10 9 9
2 4 7 0 5 1 3 3 10 9 9 9 9 9 6 5 5 4 5 7 4 1 3 3 5 2 5 10 11 9 17 10 8 10 13 17 15 15 15 14 11 13 12 10 7
5 5 3 5 4 7 5 6 7 3 3 9 7 6 9 9 1 4 6 6 0 3 6 3 3 4 4 8 11 5 7 10 12 13 10 12 15 19 16 15 12 12 10 8 10
Wind_Direction
343 341 341 338 336 335 332 330 328 327 328 326 327 328 327 322 307 223 234 233 186 211 200 238 215 227 254 235 208 58 310 280 111 137 137 161 194 112 338 124 148 148 137 149 136
339 337 336 335 333 331 330 326 324 323 323 324 323 326 326 327 287 254 234 234 207 170 182 218 206 217 228 232 61 23 311 340 126 126 145 168 189 105 212 230 149 136 138 149 138
334 331 330 329 327 325 326 323 322 321 319 319 321 323 322 322 271 243 206 204 174 170 210 226 213 215 231 237 135 205 241 116 117 122 150 169 139 107 186 167 146 146 151 164 133
328 327 325 324 322 320 322 320 318 317 316 314 316 318 316 270 348 25 137 169 171 190 222 248 254 212 238 239 149 139 253 259 142 148 153 152 114 107 197 240 155 141 156 170 148
325 323 322 320 319 317 315 314 312 311 310 308 307 311 312 225 252 144 126 136 158 202 210 233 255 218 227 228 141 150 194 179 159 152 142 153 124 140 159 249 141 141 164 169 158
326 323 321 318 315 312 311 309 307 306 308 305 298 294 240 253 120 147 164 163 188 190 215 233 248 235 249 249 174 339 332 288 195 160 149 142 127 118 186 151 151 153 172 163 151
319 317 317 315 311 308 307 306 304 303 301 293 284 253 258 246 134 164 159 190 192 190 215 236 251 260 266 282 218 182 80 289 219 158 160 121 158 159 176 181 147 165 177 165 167
319 317 316 312 308 307 305 300 300 301 294 278 237 254 255 236 243 182 176 187 222 202 234 250 255 273 286 296 291 183 141 219 171 159 148 151 163 151 189 152 153 168 181 163 171
324 321 317 313 309 308 305 301 299 293 304 159 173 250 260 211 183 213 163 183 207 205 237 252 238 271 316 292 312 262 208 213 336 152 150 154 117 57 215 178 169 172 184 169 152
325 324 318 317 314 315 311 288 285 311 218 192 264 240 245 222 194 233 183 185 189 206 232 244 120 329 292 286 225 228 231 261 154 209 169 91 103 124 259 275 178 177 181 155 152
324 323 324 318 313 323 333 258 144 210 242 203 194 240 298 216 167 211 200 192 180 199 194 218 116 210 230 241 247 257 208 228 164 43 101 115 118 157 194 256 171 179 169 158 154
328 326 325 320 315 316 283 253 275 298 296 222 250 248 256 251 186 184 203 165 185 200 201 134 220 226 221 232 246 254 267 271 135 91 90 156 184 228 185 206 175 166 162 165 153
328 325 324 320 323 264 244 248 283 296 290 284 213 245 256 150 180 191 172 202 198 207 199 217 210 225 237 230 234 242 245 226 160 132 97 114 214 186 227 201 161 160 153 159 160
325 325 322 326 309 282 240 258 254 315 299 256 183 237 241 150 190 190 188 200 177 210 215 221 253 210 234 243 226 244 233 254 141 152 162 169 223 216 184 174 178 176 162 184 160
320 320 310 305 309 289 291 325 316 358 281 147 175 191 199 200 200 192 173 242 229 197 197 245 232 246 216 237 238 243 251 224 134 192 194 191 242 216 177 192 179 179 180 182 191
320 322 325 184 222 243 277 285 341 292 293 322 142 164 197 189 241 181 173 227 254 262 232 235 236 233 240 215 249 254 272 308 182 192 254 244 188 177 185 181 165 56 315 199 193
313 302 290 308 249 309 303 327 305 67 302 311 150 160 222 192 221 188 164 216 231 229 277 249 245 222 242 241 260 256 315 301 9 66 183 257 315 208 132 145 143 163 217 232 216
307 296 223 224 256 283 294 15 72 273 264 295 293 182 209 206 223 158 160 191 244 265 269 219 254 246 216 194 202 236 212 183 161 165 234 236 136 216 162 154 172 238 183 209 180
311 199 237 239 224 258 78 60 182 220 263 281 314 219 207 215 197 168 169 189 212 237 232 23 234 271 177 189 210 248 250 237 309 227 200 126 51 37 87 100 72 57 69 41 47
303 293 269 262 186 182 19 202 216 211 286 352 334 75 353 256 207 162 342 17 174 22 36 28 333 292 269 184 236 200 274 262 336 205 190 135 148 152 164 113 82 56 51 46 32
232 257 218 216 134 63 307 269 196 79 319 47 342 20 67 36 38 360 24 43 5 2 350 342 165 307 269 183 205 111 332 15 60 135 172 127 359 17 105 100 95 77 60 47 45
296 291 247 150 7 145 248 346 324 10 80 9 38 8 92 348 40 86 70 69 6 339 337 348 299 329 288 303 304 301 208 180 147 291 83 58 99 89 92 89 101 103 78 68 72
274 259 164 189 258 254 169 120 42 2 4 359 68 97 343 79 55 121 332 44 21 15 26 324 339 10 327 312 23 337 300 288 292 339 182 140 135 108 99 92 98 107 101 76 81
282 308 340 50 25 36 8 62 106 62 353 343 342 343 120 112 116 6 170 100 41 50 275 14 16 7 219 288 341 343 339 284 246 259 79 136 133 135 121 114 101 99 99 103 81
240 17 278 14 352 96 22 3 359 58 10 58 303 68 88 34 338 35 358 79 164 111 303 18 207 76 332 295 310 328 315 260 257 248 118 162 145 137 128 125 122 113 107 103 97
323 5 344 127 244 212 56 55 43 35 6 32 28 15 90 140 157 3 346 352 59 272 216 329 355 89 287 316 322 332 322 273 284 103 116 127 121 122 119 127 133 128 130 119 109
335 331 352 272 297 80 58 47 51 42 74 43 5 5 58 30 41 162 242 268 298 30 354 324 72 37 311 341 302 334 323 360 70 93 105 121 125 132 139 139 135 127 121 118 128